Terminal Aerodrome Forecast
Issued by NWS Quad Cities IA IL

Home | Current Version | Previous Version | Graphics & Text | Print | Product List | Glossary On
Versions: 1 2 3 4 5 6 7 8 9 10 11 12 13 14 15 16 17 18 19 20 21 22 23 24 25 26 27 28
000
FTUS43 KDVN 280535 CCB
TAFDBQ
TAF COR
KDBQ 280535Z 2806/2906 VRB03KT 1SM BR SCT001 BKN040
      TEMPO 2809/2813 1/2SM FG BKN004
     FM281500 14007KT P6SM SCT025=

USA.gov is the U.S. government's official web portal to all federal, state and local government web resources and services.